Total_Precipitation_Accumulation
0.80 0.64 0.56 0.56 0.56 0.51 0.57 0.81 1.30 1.84 2.30 2.58 2.74 2.80 2.78 2.63 2.47 2.50 2.58 2.52 2.37 2.30 2.24 2.05 1.94 1.93 1.88 1.84 1.77 1.82 1.92 2.02 2.06 1.99 1.93 1.94 1.98 1.86 1.68 1.61 1.56 1.65 1.58 1.51
0.73 0.59 0.58 0.69 0.67 0.69 0.76 0.94 1.23 1.73 2.41 2.45 2.36 2.20 2.25 2.28 2.28 2.41 2.61 2.66 2.49 2.40 2.30 2.14 2.00 1.86 1.78 1.68 1.58 1.63 1.69 1.88 1.98 1.92 1.85 1.75 1.79 1.76 1.72 1.65 1.62 1.63 1.60 1.51
0.97 0.74 0.91 1.35 1.09 1.06 1.16 1.21 1.40 1.87 2.10 1.84 1.88 1.93 2.03 2.06 2.13 2.35 2.55 2.56 2.48 2.48 2.37 2.23 2.19 2.04 1.97 1.77 1.56 1.65 1.68 1.68 1.79 1.85 1.88 1.85 1.78 1.76 1.80 1.82 1.80 1.66 1.55 1.52
1.06 1.27 1.91 1.77 1.15 1.09 1.23 1.35 1.26 1.35 1.41 1.50 1.64 1.76 1.92 1.97 2.10 2.37 2.55 2.69 2.67 2.57 2.45 2.18 2.03 1.99 1.89 1.80 1.67 1.68 1.66 1.58 1.64 1.69 1.77 1.80 1.78 1.79 1.80 1.78 1.76 1.73 1.61 1.55
1.39 1.82 2.07 1.78 1.18 1.11 1.37 1.67 1.29 1.25 1.20 1.33 1.45 1.66 2.10 2.12 2.13 2.33 2.54 2.57 2.58 2.47 2.42 2.31 2.07 1.99 1.83 1.75 1.76 1.67 1.54 1.45 1.42 1.41 1.49 1.53 1.60 1.69 1.79 1.81 1.71 1.59 1.50 1.45
1.60 2.17 2.68 2.27 1.16 0.82 1.23 2.15 1.47 1.17 1.11 1.30 1.54 2.04 2.23 1.97 1.92 1.98 2.05 2.07 2.07 2.05 2.04 2.08 1.91 1.84 1.80 1.77 1.78 1.66 1.48 1.33 1.28 1.32 1.43 1.46 1.53 1.68 1.74 1.76 1.60 1.40 1.34 1.36
1.66 2.19 2.42 1.43 0.90 1.00 2.06 2.51 1.79 1.45 1.31 1.33 1.55 1.74 1.68 1.59 1.68 1.79 1.84 1.89 1.81 1.78 1.83 1.81 1.72 1.72 1.73 1.70 1.62 1.46 1.34 1.33 1.35 1.37 1.46 1.50 1.60 1.70 1.64 1.51 1.49 1.40 1.33 1.35
1.94 2.44 2.54 1.15 0.97 1.66 2.09 1.67 1.60 1.57 1.49 1.42 1.35 1.30 1.37 1.51 1.77 1.87 1.97 1.92 1.84 1.81 1.73 1.66 1.70 1.77 1.73 1.66 1.44 1.33 1.32 1.37 1.44 1.43 1.35 1.34 1.55 1.65 1.59 1.51 1.46 1.41 1.35 1.28
2.14 2.31 1.76 1.11 1.17 1.32 1.44 1.51 1.48 1.44 1.33 1.24 1.25 1.27 1.25 1.41 1.61 1.78 1.93 1.91 1.88 1.83 1.72 1.62 1.62 1.68 1.65 1.49 1.27 1.19 1.30 1.45 1.52 1.47 1.51 1.47 1.45 1.51 1.58 1.58 1.43 1.31 1.26 1.19
1.93 1.85 1.42 1.17 1.11 1.12 1.23 1.33 1.28 1.29 1.25 1.21 1.35 1.35 1.28 1.36 1.51 1.71 1.81 1.70 1.68 1.64 1.56 1.48 1.41 1.37 1.37 1.29 1.22 1.25 1.35 1.45 1.50 1.54 1.61 1.56 1.45 1.31 1.28 1.28 1.26 1.19 1.14 1.05
2.25 2.05 1.72 1.34 1.19 1.20 1.20 1.23 1.29 1.38 1.33 1.31 1.33 1.34 1.34 1.40 1.47 1.49 1.59 1.62 1.59 1.52 1.41 1.27 1.22 1.16 1.11 1.10 1.13 1.23 1.32 1.39 1.43 1.44 1.47 1.51 1.40 1.25 1.20 1.11 1.06 1.03 0.96 0.89
2.72 2.23 2.08 1.62 1.28 1.29 1.33 1.33 1.35 1.33 1.22 1.16 1.13 1.17 1.21 1.23 1.28 1.32 1.41 1.53 1.58 1.45 1.35 1.20 1.14 1.14 1.07 1.03 1.07 1.18 1.26 1.25 1.21 1.25 1.28 1.30 1.33 1.24 1.04 0.89 0.78 0.72 0.71 0.67
2.19 1.78 1.61 1.47 1.32 1.36 1.33 1.16 1.10 1.14 1.11 1.06 1.03 1.06 1.10 1.07 1.09 1.17 1.27 1.31 1.38 1.35 1.19 1.11 1.07 1.03 1.02 1.00 1.02 1.10 1.19 1.18 1.08 1.01 1.08 1.12 1.11 1.19 1.11 0.87 0.64 0.54 0.56 0.59
1.57 1.48 1.42 1.22 1.12 1.07 0.98 0.91 0.90 0.98 0.99 0.94 0.90 0.94 0.98 0.97 0.97 1.04 1.17 1.13 1.13 1.09 1.02 1.04 1.03 1.01 0.94 0.94 1.02 1.05 1.06 1.02 0.96 0.98 0.96 0.94 0.94 0.95 0.97 1.03 0.92 0.70 0.58 0.58
1.22 1.23 1.17 0.96 0.90 0.89 0.80 0.79 0.84 0.88 0.87 0.89 0.85 0.98 1.07 0.98 0.93 0.91 1.04 1.03 1.01 0.99 0.96 0.95 0.97 0.98 0.92 0.95 0.98 1.03 1.06 1.03 0.97 0.94 0.91 0.86 0.82 0.80 0.79 0.83 0.87 0.85 0.77 0.68
0.91 0.90 0.93 0.96 0.99 0.94 0.93 0.90 0.92 0.92 0.93 0.89 0.89 0.94 1.02 1.06 0.96 0.92 0.97 0.97 1.03 1.06 0.99 0.94 0.92 0.85 0.84 0.89 0.91 0.97 1.01 0.99 0.97 0.94 0.83 0.79 0.76 0.76 0.75 0.80 0.83 0.83 0.82 0.81
0.95 0.95 0.97 1.07 1.10 1.12 1.15 1.09 1.01 0.96 1.00 0.96 0.88 0.85 0.89 1.00 1.09 1.11 1.07 0.96 0.97 1.01 0.97 0.94 0.85 0.77 0.76 0.77 0.84 0.85 0.90 0.95 0.96 0.86 0.76 0.73 0.75 0.73 0.71 0.76 0.78 0.80 0.73 0.74
0.97 0.92 0.88 0.99 1.05 1.07 1.07 1.04 1.00 0.99 1.04 0.97 0.82 0.82 0.91 1.01 1.06 1.05 1.01 0.97 0.97 0.99 0.94 0.89 0.79 0.73 0.72 0.74 0.80 0.83 0.87 0.87 0.86 0.79 0.77 0.74 0.74 0.75 0.73 0.74 0.76 0.78 0.73 0.73
0.87 0.83 0.76 0.81 0.89 0.94 0.96 1.00 1.02 0.93 0.91 0.89 0.86 0.86 0.92 1.02 1.01 1.01 1.03 1.05 1.09 1.10 0.97 0.81 0.81 0.81 0.79 0.82 0.81 0.78 0.82 0.85 0.87 0.85 0.82 0.82 0.82 0.81 0.84 0.83 0.81 0.79 0.76 0.75
0.77 0.77 0.76 0.74 0.76 0.86 0.93 0.92 0.91 0.86 0.83 0.87 0.89 0.91 0.96 0.97 0.95 0.98 1.04 1.12 1.11 0.99 0.89 0.82 0.76 0.81 0.81 0.88 0.90 0.83 0.84 0.84 0.85 0.87 0.89 0.88 0.91 0.89 0.85 0.81 0.78 0.77 0.77 0.73
0.77 0.76 0.76 0.75 0.75 0.78 0.80 0.77 0.78 0.82 0.83 0.88 0.94 1.03 1.05 0.98 0.90 0.93 0.99 1.08 1.06 0.95 0.87 0.84 0.78 0.82 0.82 0.88 0.92 0.84 0.80 0.81 0.80 0.78 0.76 0.79 0.84 0.86 0.82 0.79 0.76 0.71 0.70 0.72
0.83 0.78 0.70 0.68 0.71 0.75 0.76 0.74 0.75 0.73 0.74 0.82 0.93 1.02 1.10 1.03 0.95 0.94 0.94 1.00 0.98 0.95 0.90 0.80 0.76 0.81 0.81 0.80 0.82 0.82 0.73 0.73 0.73 0.70 0.66 0.65 0.65 0.65 0.67 0.71 0.78 0.76 0.69 0.71
0.85 0.77 0.68 0.64 0.67 0.70 0.65 0.63 0.68 0.74 0.75 0.78 0.85 0.93 1.00 0.94 0.90 0.94 0.95 0.92 0.90 0.93 0.89 0.87 0.90 0.83 0.70 0.64 0.77 0.82 0.77 0.75 0.73 0.67 0.61 0.59 0.60 0.61 0.61 0.60 0.63 0.63 0.63 0.63
0.86 0.79 0.73 0.64 0.63 0.66 0.66 0.67 0.65 0.70 0.76 0.78 0.79 0.84 0.88 0.89 0.86 0.81 0.78 0.84 0.86 0.82 0.77 0.84 0.86 0.77 0.69 0.61 0.66 0.71 0.73 0.72 0.70 0.67 0.66 0.64 0.65 0.68 0.66 0.61 0.59 0.58 0.58 0.61
0.95 0.84 0.73 0.69 0.73 0.75 0.74 0.72 0.70 0.70 0.79 0.82 0.80 0.83 0.84 0.84 0.83 0.76 0.70 0.74 0.83 0.79 0.72 0.74 0.77 0.74 0.65 0.60 0.63 0.66 0.66 0.65 0.65 0.63 0.64 0.69 0.70 0.69 0.65 0.62 0.63 0.63 0.64 0.67
1.10 1.00 0.89 0.82 0.77 0.75 0.78 0.81 0.81 0.75 0.80 0.89 0.87 0.82 0.81 0.77 0.70 0.68 0.71 0.77 0.80 0.80 0.71 0.68 0.71 0.72 0.64 0.62 0.65 0.64 0.59 0.58 0.58 0.57 0.61 0.66 0.65 0.67 0.67 0.66 0.68 0.67 0.66 0.66
1.15 1.11 1.05 0.92 0.81 0.78 0.82 0.88 0.87 0.81 0.78 0.80 0.80 0.76 0.76 0.74 0.69 0.67 0.73 0.81 0.82 0.78 0.74 0.73 0.75 0.76 0.75 0.73 0.74 0.74 0.71 0.71 0.69 0.67 0.65 0.65 0.63 0.65 0.63 0.61 0.62 0.64 0.63 0.62